User: anonymous   Login
Location: Barcelona
(41.3830°N, 2.1830°E)
Time: 00:27:22
(UTC+01:00)
Language:

ISS - Orbit

View from above orbital plane
View from above orbital plane
View from above satellite
View from above satellite

Ground track
Ground track

The orbit data is extracted from the following two-line orbital elements,

1 25544U 98067A   21026.34135018  .00016717  00000-0  10270-3 0  9126
2 25544  51.6434 324.3117 0001962 297.3111  62.7839 15.48890133 26609
Epoch (UTC): 26 January 2021 08:11:32
Eccentricity: 0.0001962
inclination: 51.6434°
perigee height: 418 km
apogee height: 421 km
right ascension of ascending node: 324.3117°
argument of perigee: 297.3111°
revolutions per day: 15.48890133
mean anomaly at epoch: 62.7839°
orbit number at epoch: 2660

The dashed part of the orbit path shows where the satellite is in the earth's shadow,  

DLR